Regional Weather Roundup
Issued by NWS

Home | Current Version | Previous Version | Text Only | Print | Product List | Glossary Off
Versions: 1 2 3 4 5 6 7 8 9 10 11 12 13 14 15 16 17 18 19 20 21 22 23 24 25 26 27 28 29 30 31 32 33 34 35 36 37 38 39 40 41 42 43 44 45 46 47 48 49 50

000
ASUS45 KPSR 302100
RWRAZ

PRELIMINARY ARIZONA REGIONAL HOURLY WEATHER ROUNDUP
NATIONAL WEATHER SERVICE PHOENIX AZ
200 PM MST WED JUL 30 2014

NOTE: FAIR INDICATES FEW OR NO CLOUDS BELOW 12,000 FEET WITH NO
SIGNIFICANT WEATHER AND/OR OBSTRUCTIONS TO VISIBILITY.

AZZ001>003-036-302200-
NORTHWEST ARIZONA

CITY           SKY/WX    TMP DP  RH WIND       PRES   REMARKS
KINGMAN        PTSUNNY   98  46  17 W9        30.04F
$$

AZZ004>008-015-016-018-302200-
NORTH CENTRAL ARIZONA

CITY           SKY/WX    TMP DP  RH WIND       PRES   REMARKS
GRAND CANYON   PTSUNNY   84  45  25 VRB7G18   30.29F
WILLIAMS       MOSUNNY   81  46  30 SW9G17    30.37F
PRESCOTT       MOSUNNY   90  44  20 S7G24     30.18F
FLAGSTAFF      PTSUNNY   82  40  22 W12G20    30.33F
PAYSON         MOSUNNY   91  46  21 NW12G21   30.19F
PAGE           SUNNY     93  48  21 VRB3      30.08F
$$

AZZ009>014-017-302200-
NORTHEAST ARIZONA

CITY           SKY/WX    TMP DP  RH WIND       PRES   REMARKS
WINSLOW        NOT AVBL
SAINT JOHNS    SUNNY     90  44  20 W14G21    30.19F
WINDOW ROCK    CLOUDY    82  46  28 NW9       30.29S
$$

AZZ023-302200-
GREATER PHOENIX AREA

CITY           SKY/WX    TMP DP  RH WIND       PRES   REMARKS
PHOENIX        MOSUNNY  108  51  15 CALM      29.83F HX 105
BUCKEYE          N/A    108  52  15 S6        29.84F HX 105
DEER VALLEY    SUNNY    104  50  16 CALM      29.86F HX 101
SCOTTSDALE     SUNNY    106  52  16 S10G17    29.88F HX 103
MESA-GATEWAY   MOSUNNY  104  54  18 W8        29.88F HX 102
CHANDLER       PTSUNNY  106  52  16 S12       29.86F HX 103
$$

AZZ027-028-302200-
SOUTHWEST MARICOPA COUNTY AND PINAL COUNTY

CITY           SKY/WX    TMP DP  RH WIND       PRES   REMARKS
CASA GRANDE    SUNNY    106  55  18 W9G16     29.88F HX 105
GILA BEND      PTCLDY   109  46  12 VRB3      29.84F HX 105
$$

AZZ503-504-507>509-302200-
SOUTHEAST ARIZONA

CITY           SKY/WX    TMP DP  RH WIND       PRES   REMARKS
TUCSON         PTSUNNY  100  51  19 S6        29.99F
DAVIS-MONTHAN  MOSUNNY   97  54  23 NW1       29.98F
RYAN FIELD       N/A    100  54  20 W9        29.98F
NOGALES        MOSUNNY   94  52  24 SW7       30.08F
SIERRA VISTA   PTSUNNY   84  52  32 W6        30.17F THUNDER
SAFFORD        MOSUNNY  101  48  16 NW12G22   29.98F
$$

AZZ020-021-025-026-031-302200-
SOUTHWEST ARIZONA

CITY           SKY/WX    TMP DP  RH WIND       PRES   REMARKS
YUMA           MOSUNNY  112  45  10 W9        29.78F HX 107
$$

CAZ031-033-041-043-047-048-061-302200-
SOUTHERN CALIFORNIA

CITY           SKY/WX    TMP DP  RH WIND       PRES   REMARKS
DOWNTOWN L.A.  SUNNY     85  63  47 VRB5      29.92F
L.A. AIRPORT   PTSUNNY   78  60  53 W12       29.94F
SAN DIEGO      MOSUNNY   80  63  55 NW9       29.96S
BURBANK        SUNNY     92  57  30 S9        29.93F
ONTARIO        PTSUNNY   97  54  23 W10G20    29.93F
RIVERSIDE      PTSUNNY   97  57  26 W9G18     29.92F
PALM SPRINGS   SUNNY    112  43  10 E7        29.81F HX 106
EL CENTRO NAS  MOSUNNY  111  49  12 VRB3      29.76F HX 107
IMPERIAL       MOSUNNY  111  50  13 NE6       29.76F HX 108
BLYTHE           N/A    N/A N/A N/A MISG      29.78F
$$

NVZ020-UTZ003-302200-
SOUTHERN NEVADA-UTAH

CITY           SKY/WX    TMP DP  RH WIND       PRES   REMARKS
LAS VEGAS      NOT AVBL
SALT LAKE CITY PTSUNNY   76  58  53 SW3       30.19F
$$

NMZ009-TXZ055-302200-
NEW MEXICO-WEST TEXAS

CITY           SKY/WX    TMP DP  RH WIND       PRES   REMARKS
ALBUQUERQUE    PTSUNNY   85  53  33 W6        30.18F
EL PASO        MOSUNNY   99  52  20 SW9       30.02F
$$


........................KEY........................
SKY/WX - SKY CONDITION/WEATHER
TMP    - TEMPERATURE IN FAHRENHEIT
DP     - DEW POINT IN FAHRENHEIT
RH     - RELATIVE HUMIDITY IN PERCENT
WIND   - DIRECTION AND SPEED IN MILES PER HOUR (MPH)
VRB    - VARIABLE WIND DIRECTION
PRES   - MEAN SEA LEVEL PRESSURE IN INCHES OF MERCURY
         F - FALLING PRESSURE   R - RISING PRESSURE
         S - STEADY PRESSURE
VSB    - VISIBILITY IN MILES
HX     - HEAT INDEX IN FAHRENHEIT
WCI    - WIND CHILL INDEX IN FAHRENHEIT
TC     - TEMPERATURE IN CELSIUS WHICH IS ALSO KNOWN AS
         TEMPERATURE IN CENTIGRADE
AFB    - AIR FORCE BASE
         LUKE AFB IS LUKE AIR FORCE BASE
         DAVIS-MONTHAN IS DAVIS-MONTHAN AIR FORCE BASE
NAS    - NAVAL AIR STATION
         EL CENTRO NAS IS EL CENTRO NAVAL AIR STATION
N/A    - NOT AVAILABLE


USA.gov is the U.S. government's official web portal to all federal, state and local government web resources and services.